Tiempo cada hora Dabrowka

Hoy, 13 Mayo, Jueves

Tiempo Temperatura Precipitaciones Viento Presión Humedad
00:00 +15°C° 0.1 mm 1 mps 733 mmHg 96%
01:00 +15°C° 0.1 mm 2 mps 733 mmHg 96%
02:00 +15°C° 0.2 mm 2 mps 733 mmHg 97%
03:00 +14°C° 0.2 mm 2 mps 732 mmHg 97%
04:00 +13°C° 0.2 mm 3 mps 732 mmHg 97%
05:00 +13°C° 0.1 mm 3 mps 732 mmHg 97%
06:00 +13°C° 0.1 mm 3 mps 732 mmHg 96%
07:00 +12°C° 0.1 mm 3 mps 732 mmHg 96%
08:00 +13°C° 0 mm 3 mps 732 mmHg 94%
09:00 +13°C° 0 mm 3 mps 732 mmHg 91%
10:00 +14°C° 0 mm 3 mps 731 mmHg 89%
11:00 +14°C° 0 mm 3 mps 731 mmHg 87%
12:00 +14°C° 0 mm 3 mps 731 mmHg 86%
13:00 +16°C° 0 mm 3 mps 731 mmHg 84%
14:00 +15°C° 0.1 mm 4 mps 731 mmHg 85%
15:00 +14°C° 0.1 mm 4 mps 731 mmHg 86%
16:00 +14°C° 0.1 mm 4 mps 731 mmHg 86%
17:00 +14°C° 0.1 mm 4 mps 731 mmHg 88%
18:00 +13°C° 0.1 mm 4 mps 731 mmHg 90%
19:00 +12°C° 0.1 mm 4 mps 731 mmHg 92%
20:00 +12°C° 0 mm 4 mps 731 mmHg 92%
21:00 +12°C° 0 mm 3 mps 731 mmHg 93%
22:00 +11°C° 0 mm 3 mps 732 mmHg 93%
23:00 +11°C° 0 mm 4 mps 732 mmHg 93%

Mañana, 14 Mayo, Viernes

Tiempo Temperatura Precipitaciones Viento Presión Humedad
00:00 +11°C° 0 mm 4 mps 732 mmHg 93%
01:00 +10°C° 0 mm 4 mps 732 mmHg 93%
02:00 +10°C° 0 mm 4 mps 732 mmHg 94%
03:00 +10°C° 0 mm 4 mps 732 mmHg 94%
04:00 +10°C° 0 mm 4 mps 732 mmHg 94%
05:00 +10°C° 0 mm 4 mps 733 mmHg 93%
06:00 +10°C° 0 mm 4 mps 733 mmHg 93%
07:00 +10°C° 0 mm 4 mps 734 mmHg 92%
08:00 +10°C° 0 mm 5 mps 734 mmHg 90%
09:00 +10°C° 0 mm 5 mps 734 mmHg 87%
10:00 +12°C° 0 mm 5 mps 735 mmHg 85%
11:00 +12°C° 0 mm 5 mps 735 mmHg 83%
12:00 +12°C° 0 mm 5 mps 735 mmHg 82%
13:00 +12°C° 0 mm 5 mps 736 mmHg 80%
14:00 +12°C° 0 mm 5 mps 736 mmHg 79%
15:00 +12°C° 0 mm 5 mps 736 mmHg 77%
16:00 +12°C° 0 mm 4 mps 736 mmHg 76%
17:00 +11°C° 0 mm 3 mps 736 mmHg 79%
18:00 +11°C° 0 mm 3 mps 737 mmHg 82%
19:00 +12°C° 0 mm 2 mps 737 mmHg 85%
20:00 +10°C° 0 mm 2 mps 737 mmHg 86%
21:00 +10°C° 0 mm 2 mps 737 mmHg 87%
22:00 +10°C° 0 mm 2 mps 737 mmHg 88%
23:00 +9°C° 0 mm 2 mps 737 mmHg 89%

Pasado mañana, 15 Mayo, Sábado

Tiempo Temperatura Precipitaciones Viento Presión Humedad
00:00 +10°C° 0 mm 1 mps 737 mmHg 91%
01:00 +10°C° 0 mm 1 mps 737 mmHg 92%
02:00 +9°C° 0 mm 1 mps 737 mmHg 92%
03:00 +9°C° 0 mm 1 mps 737 mmHg 92%
04:00 +9°C° 0 mm 1 mps 737 mmHg 93%
05:00 +10°C° 0 mm 1 mps 738 mmHg 88%
06:00 +12°C° 0 mm 1 mps 738 mmHg 83%
07:00 +13°C° 0 mm 1 mps 738 mmHg 78%
08:00 +15°C° 0.1 mm 1 mps 738 mmHg 73%
09:00 +16°C° 0.1 mm 1 mps 738 mmHg 67%
10:00 +19°C° 0.1 mm 1 mps 738 mmHg 62%
11:00 +19°C° 0.3 mm 1 mps 738 mmHg 60%
12:00 +19°C° 0.3 mm 2 mps 737 mmHg 59%
13:00 +19°C° 0.3 mm 2 mps 737 mmHg 58%
14:00 +19°C° 0.5 mm 2 mps 737 mmHg 61%
15:00 +18°C° 0.5 mm 2 mps 737 mmHg 65%
16:00 +18°C° 0.5 mm 2 mps 736 mmHg 69%
17:00 +17°C° 0.6 mm 2 mps 736 mmHg 74%
18:00 +15°C° 0.6 mm 2 mps 736 mmHg 79%
19:00 +14°C° 0.6 mm 2 mps 736 mmHg 84%
20:00 +14°C° 0.3 mm 2 mps 736 mmHg 87%
21:00 +13°C° 0.3 mm 2 mps 735 mmHg 89%
22:00 +12°C° 0.3 mm 2 mps 735 mmHg 92%
23:00 +12°C° 0.6 mm 2 mps 735 mmHg 93%

16 Mayo, Domingo

Tiempo Temperatura Precipitaciones Viento Presión Humedad
00:00 +12°C° 0.6 mm 1 mps 735 mmHg 94%
01:00 +12°C° 0.6 mm 1 mps 735 mmHg 96%
02:00 +12°C° 0.6 mm 1 mps 735 mmHg 96%
03:00 +12°C° 0.6 mm 1 mps 735 mmHg 96%
04:00 +12°C° 0.6 mm 1 mps 735 mmHg 97%
05:00 +12°C° 0.7 mm 2 mps 735 mmHg 96%
06:00 +12°C° 0.7 mm 2 mps 735 mmHg 96%
07:00 +12°C° 0.7 mm 2 mps 735 mmHg 96%
08:00 +12°C° 0.5 mm 2 mps 735 mmHg 94%
09:00 +11°C° 0.5 mm 3 mps 735 mmHg 92%
10:00 +11°C° 0.5 mm 3 mps 736 mmHg 91%
11:00 +11°C° 0.9 mm 3 mps 736 mmHg 91%
12:00 +11°C° 0.9 mm 3 mps 736 mmHg 92%
13:00 +11°C° 0.9 mm 3 mps 736 mmHg 93%
14:00 +11°C° 0.5 mm 3 mps 736 mmHg 89%
15:00 +13°C° 0.5 mm 2 mps 736 mmHg 85%
16:00 +13°C° 0.5 mm 2 mps 735 mmHg 81%
17:00 +13°C° 0 mm 2 mps 735 mmHg 84%
18:00 +12°C° 0 mm 2 mps 735 mmHg 87%
19:00 +12°C° 0 mm 2 mps 735 mmHg 91%
20:00 +10°C° 0 mm 2 mps 735 mmHg 91%
21:00 +9°C° 0 mm 2 mps 735 mmHg 92%
22:00 +9°C° 0 mm 2 mps 735 mmHg 93%
23:00 +8°C° 0 mm 2 mps 735 mmHg 92%

17 Mayo, Lunes

Tiempo Temperatura Precipitaciones Viento Presión Humedad
00:00 +8°C° 0 mm 2 mps 735 mmHg 92%
01:00 +8°C° 0 mm 3 mps 735 mmHg 92%
02:00 +8°C° 0 mm 2 mps 735 mmHg 92%
03:00 +8°C° 0 mm 2 mps 735 mmHg 92%
04:00 +8°C° 0 mm 2 mps 735 mmHg 92%
05:00 +9°C° 0 mm 2 mps 735 mmHg 88%
06:00 +10°C° 0 mm 2 mps 736 mmHg 84%
07:00 +13°C° 0 mm 2 mps 736 mmHg 80%
08:00 +14°C° 0 mm 2 mps 736 mmHg 74%
09:00 +15°C° 0 mm 2 mps 736 mmHg 67%
10:00 +16°C° 0 mm 2 mps 736 mmHg 60%
11:00 +17°C° 0 mm 2 mps 736 mmHg 58%
12:00 +17°C° 0 mm 2 mps 736 mmHg 56%
13:00 +18°C° 0 mm 2 mps 736 mmHg 54%
14:00 +18°C° 0.1 mm 2 mps 735 mmHg 56%
15:00 +18°C° 0.1 mm 2 mps 735 mmHg 57%
16:00 +18°C° 0.1 mm 2 mps 735 mmHg 59%
17:00 +16°C° 0.5 mm 2 mps 735 mmHg 68%
18:00 +14°C° 0.5 mm 2 mps 735 mmHg 77%
19:00 +13°C° 0.5 mm 2 mps 735 mmHg 85%
20:00 +12°C° 0.9 mm 2 mps 736 mmHg 89%
21:00 +12°C° 0.9 mm 2 mps 736 mmHg 92%
22:00 +10°C° 0.9 mm 2 mps 736 mmHg 95%
23:00 +10°C° 0.8 mm 2 mps 736 mmHg 95%

18 Mayo, Martes

Tiempo Temperatura Precipitaciones Viento Presión Humedad
00:00 +10°C° 0.8 mm 2 mps 736 mmHg 95%
01:00 +10°C° 0.8 mm 2 mps 736 mmHg 94%
02:00 +10°C° 0.3 mm 3 mps 736 mmHg 94%
03:00 +9°C° 0.3 mm 3 mps 736 mmHg 93%
04:00 +9°C° 0.3 mm 3 mps 736 mmHg 93%
05:00 +8°C° 0.1 mm 4 mps 737 mmHg 92%
06:00 +8°C° 0.1 mm 4 mps 737 mmHg 91%
07:00 +8°C° 0.1 mm 4 mps 738 mmHg 91%
08:00 +10°C° 0.1 mm 4 mps 738 mmHg 86%
09:00 +10°C° 0.1 mm 5 mps 738 mmHg 81%
10:00 +12°C° 0.1 mm 5 mps 739 mmHg 76%
11:00 +12°C° 0.2 mm 5 mps 739 mmHg 74%
12:00 +13°C° 0.2 mm 6 mps 739 mmHg 71%
13:00 +14°C° 0.2 mm 6 mps 739 mmHg 69%
14:00 +14°C° 0.2 mm 6 mps 739 mmHg 71%
15:00 +13°C° 0.2 mm 6 mps 739 mmHg 72%
16:00 +13°C° 0.2 mm 6 mps 740 mmHg 73%
17:00 +11°C° 0.1 mm 6 mps 740 mmHg 76%
18:00 +10°C° 0.1 mm 5 mps 741 mmHg 78%
19:00 +9°C° 0.1 mm 5 mps 741 mmHg 81%
20:00 +8°C° 0 mm 4 mps 741 mmHg 83%
21:00 +7°C° 0 mm 4 mps 742 mmHg 84%
22:00 +7°C° 0 mm 3 mps 742 mmHg 86%
23:00 +7°C° 0 mm 3 mps 742 mmHg 87%
Mostrar más

Necesitamos Su Consentimiento

Meteoprog y nuestros Proveedores de Servicios pueden almacenar y acceder a sus datos personales como cookies, identificadores de dispositivo u otras tecnologías similares de su dispositivo y procesar dichos datos para personalizar contenido y anuncios, además de ofrecer funciones de redes sociales y analizar el tráfico.

  • Almacenar y/o acceder a información en su dispositivo

    Se puede almacenar o acceder a cookies, identificadores de dispositivo u otra información de su dispositivo para los fines anteriormente indicados.

  • Anuncios y contenido personalizados, medición de anuncios y contenido, percepciones del público, y desarrollo de productos

    Los anuncios y el contenido pueden personalizarse en base a su perfil. Se pueden añadir más datos para personalizar mejor los anuncios y contenidos. Se puede medir el rendimiento de los anuncios y contenidos. Se puede obtener la percepción sobre el público que ha visto los anuncios y contenidos. Dichos datos pueden usarse para desarrollar o mejorar la experiencia del usuario, sistemas y software.

Al hacer clic en ‘Estoy De Acuerdo’ usted permitirá el uso de las cookies, identificadores de dispositivo, balizas web u otras tecnologías similares indicadas. Su configuración puede cambiarse desde el navegador de su dispositivo.

Para ciertos fines, los intereses legítimos pueden ser considerados por encima del consentimiento. Puede leer más sobre ello en nuestra Política de Privacidad y Cookies.